P/2014 C1 ( TOTAS ) 2019

Japanese version
Home page
Updated on November 4, 2020

---------------------------------------------------------------------

* Profile

* Pictures

* Orbital Elements

Epoch 2019 Apr. 27.0 TT = JDT 2458600.5
T 2019 May 8.88539 TT                                   MPC
q   1.6871443            (2000.0)            P               Q
n   0.18330962     Peri.   24.35001     -0.97701090     +0.21296466
a   3.0691106      Node   167.93389     -0.20247140     -0.91254423
e   0.4502823      Incl.    2.68300     -0.06674601     -0.34915481
P   5.38
From 46 observations 2014 Feb. 1-May 8, mean residual 0".6.

* Finding Charts

* Magnitudes Graph

        m1 = 17.0 + 5 log d + 10.0 log r

        * Gray curve is:  m1 = 14.0 + 5 log d + 10.0 log r

---------------------------------------------------------------------

The orbital elements are published on M.P.E.C. 2014-L52.
The charts are made with StellaNavigator Ver.10 (AstroArts).
The magnitudes graphs are made with Comet for Windows.

---------------------------------------------------------------------

Copyright(C) Seiichi Yoshida (comet@aerith.net). All rights reserved.